"Time","Temp","Dewpoint","Humidity","Pressure","Direction","Speed","Gust","Precip","PrecipRate"
"00:04:56","66.4","49.5","54.5","29.97","108","2.8","7","0.00","0.00"
"00:09:58","66.3","49.5","54.8","29.97","108","3.1","6.9","0.00","0.00"
"00:14:56","66.3","49.5","54.8","29.97","101","1.6","5","0.00","0.00"
"00:19:56","66.1","49","54.1","29.96","136","2.6","7","0.00","0.00"
"00:24:57","65.8","48.2","53","29.96","106","3.8","6.9","0.00","0.00"
"00:29:57","65.6","48.1","53.2","29.97","110","2.3","5","0.00","0.00"
"00:34:58","65.4","47.9","53.2","29.97","105","2.9","5","0.00","0.00"
"00:39:56","65.1","47.6","53.1","29.97","106","2.9","5","0.00","0.00"
"00:44:56","64.9","47","52.2","29.97","129","2.7","5","0.00","0.00"
"00:49:56","64.7","46.3","51.4","29.97","117","3.6","7","0.00","0.00"
"00:54:57","64.5","45.9","50.8","29.97","127","3.1","5.8","0.00","0.00"
"00:59:57","64.3","45.7","50.8","29.98","140","2.6","7","0.00","0.00"
"01:04:56","64.1","44.6","49.2","29.98","141","3.4","6.9","0.00","0.00"
"01:09:58","63.8","44.4","49.2","29.98","109","3.4","8.1","0.00","0.00"
"01:14:56","63.5","43.7","48.5","29.99","135","3.4","6","0.00","0.00"
"01:19:56","63.2","42.7","47.1","29.99","120","2.8","6","0.00","0.00"
"01:24:57","63","41.7","45.7","29.99","129","2.3","5","0.00","0.00"
"01:29:57","62.8","41.3","45.4","29.99","107","1.7","4","0.00","0.00"
"01:34:59","62.5","41.1","45.3","29.99","137","2.1","5","0.00","0.00"
"01:39:58","62.4","41.2","45.9","29.99","145","1.5","4","0.00","0.00"
"01:44:59","62.2","40.6","45.1","30.00","147","1.8","7","0.00","0.00"
"01:49:59","62","39.7","43.8","30.00","105","4.4","10","0.00","0.00"
"01:54:57","62","39.5","43.5","30.00","114","2.9","6.9","0.00","0.00"
"01:59:57","61.8","38.9","42.7","30.00","112","2.7","6","0.00","0.00"
"02:04:57","61.6","38.4","42.1","30.00","118","4.1","7","0.00","0.00"
"02:09:57","61.5","37.2","40.3","30.00","121","4.4","7","0.00","0.00"
"02:14:59","61.5","37","40.1","30.00","119","3.6","9.2","0.00","0.00"
"02:19:56","61.4","37.5","40.9","30.00","113","3.1","9.2","0.00","0.00"
"02:24:56","61.2","37.3","41","30.00","111","2.7","6","0.00","0.00"
"02:29:58","61.1","37.2","41","30.00","114","2.1","5","0.00","0.00"
"02:34:59","61","37.2","41.2","30.00","117","0.5","3.5","0.00","0.00"
"02:39:57","60.9","37.2","41.3","30.00","99","2.3","5","0.00","0.00"
"02:44:58","60.8","37.3","41.6","30.01","122","2.1","4","0.00","0.00"
"02:49:58","60.7","37","41.3","30.01","98","2.2","4","0.00","0.00"
"02:54:55","60.6","37.2","41.7","30.01","113","2.4","5","0.00","0.00"
"02:59:56","60.5","36.6","40.9","30.01","128","2.2","5","0.00","0.00"
"03:04:57","60.5","36.7","41","30.01","119","1.9","5","0.00","0.00"
"03:09:57","60.5","36.6","40.8","30.01","111","1.7","4","0.00","0.00"
"03:14:59","60.5","36.8","41.2","30.02","108","1","3.5","0.00","0.00"
"03:19:56","60.4","36.8","41.3","30.02","111","1.1","3.5","0.00","0.00"
"03:24:58","60.3","36.5","41.1","30.02","113","0.9","3.5","0.00","0.00"
"03:29:59","60.2","36.4","41","30.02","111","0.4","2.3","0.00","0.00"
"03:34:57","60","35.9","40.5","30.02","117","1.4","4","0.00","0.00"
"03:39:59","60","35","39","30.02","123","1.3","3.5","0.00","0.00"
"03:44:56","60","35.5","39.8","30.02","124","1.1","3.5","0.00","0.00"
"03:49:57","59.9","34.6","38.5","30.02","125","1.4","3.5","0.00","0.00"
"03:54:58","59.9","34.7","38.7","30.02","126","1","3.5","0.00","0.00"
"03:59:58","59.8","34.7","38.9","30.02","126","1.1","3.5","0.00","0.00"
"04:04:59","59.7","34.3","38.4","30.01","126","0.9","3.5","0.00","0.00"
"04:09:56","59.7","34.6","38.9","30.01","127","1.3","3.5","0.00","0.00"
"04:14:59","59.6","34.4","38.8","30.01","129","1.7","4","0.00","0.00"
"04:19:56","59.4","34.3","38.9","30.01","126","1.8","3.5","0.00","0.00"
"04:24:57","59.3","34.1","38.8","30.01","126","0.6","2.3","0.00","0.00"
"04:29:59","59.1","34.2","39.2","30.01","126","0.6","2.3","0.00","0.00"
"04:34:56","58.9","34.2","39.4","30.01","126","1.2","3.5","0.00","0.00"
"04:39:59","58.7","34.1","39.5","30.01","126","0.5","2.3","0.00","0.00"
"04:44:56","58.4","34.2","40","30.01","126","0.2","2.3","0.00","0.00"
"04:49:57","58.2","34.3","40.5","30.01","126","0.4","1.2","0.00","0.00"
"04:54:58","57.9","34.3","41","30.01","126","0.8","2.3","0.00","0.00"
"04:59:59","57.7","34.7","42.1","30.02","126","0.3","2.3","0.00","0.00"
"05:04:56","57.4","35.7","44.2","30.02","126","0.1","1.2","0.00","0.00"
"05:09:56","57","34.5","42.7","30.02","126","0.4","2","0.00","0.00"
"05:14:59","56.9","34.5","42.8","30.02","126","1.1","2.3","0.00","0.00"
"05:19:56","56.7","34.7","43.5","30.02","126","0.6","2","0.00","0.00"
"05:24:58","56.4","34.6","43.7","30.02","126","0.3","1.2","0.00","0.00"
"05:29:56","56.1","34.5","44","30.03","126","0.3","1.2","0.00","0.00"
"05:34:58","55.9","34.4","44.1","30.03","126","0.1","2","0.00","0.00"
"05:39:56","55.8","34.6","44.7","30.03","126","0.6","2.3","0.00","0.00"
"05:44:57","55.7","35.1","45.8","30.04","126","1","2.3","0.00","0.00"
"05:49:58","55.5","35.4","46.7","30.04","126","1.2","2.3","0.00","0.00"
"05:54:59","55.5","35.6","47","30.04","126","1.3","3.5","0.00","0.00"
"05:59:56","55.4","36.1","48.1","30.04","126","0.4","1.2","0.00","0.00"
"06:04:57","55.2","35.8","48","30.04","126","0.2","1.2","0.00","0.00"
"06:09:59","55.1","36.1","48.6","30.04","126","0.3","1.2","0.00","0.00"
"06:14:57","55.1","36.4","49.3","30.05","126","0.1","1.2","0.00","0.00"
"06:19:55","54.7","38.1","53.4","30.05","126","0","1.2","0.00","0.00"
"06:24:57","54.3","37.6","53.1","30.05","126","0.2","1.2","0.00","0.00"
"06:29:59","54.1","37.4","53.2","30.05","126","0.6","2.3","0.00","0.00"
"06:34:58","53.9","39.2","57.4","30.05","126","0","0","0.00","0.00"
"06:39:57","53.6","38","55.4","30.05","126","0.2","2","0.00","0.00"
"06:44:58","53.5","36.8","52.8","30.05","126","0.8","2.3","0.00","0.00"
"06:49:58","53.7","39.2","57.9","30.05","123","0","0","0.00","0.00"
"06:54:57","53.6","39.8","59.7","30.05","113","0","1.2","0.00","0.00"
"06:59:56","53.3","39.3","59","30.06","113","0","0","0.00","0.00"
"07:04:58","53.1","38.1","56.5","30.06","113","0","1.2","0.00","0.00"
"07:09:56","53.3","37.5","55.2","30.06","113","0","0","0.00","0.00"
"07:14:57","53.4","39.9","60","30.07","113","0","0","0.00","0.00"
"07:19:57","53.5","38.5","56.7","30.07","107","0.5","2.3","0.00","0.00"
"07:24:59","53.8","38.4","55.8","30.07","50","1.4","3.5","0.00","0.00"
"07:29:57","54.1","38.3","55","30.07","99","1.7","4","0.00","0.00"
"07:34:59","54.4","38.6","55","30.07","94","1.9","4","0.00","0.00"
"07:39:56","54.7","38.6","54.7","30.07","96","1.5","3.5","0.00","0.00"
"07:49:58","55.1","39.2","55.1","30.07","104","1.9","4","0.00","0.00"
"07:54:56","55.3","39.5","55.2","30.07","85","1.6","4","0.00","0.00"
"07:59:56","55.5","39.8","55.4","30.08","98","2.1","6","0.00","0.00"
"08:04:56","55.9","40.1","55.2","30.08","95","2.7","5.8","0.00","0.00"
"08:09:56","56.1","40.1","55","30.08","107","2.7","5","0.00","0.00"
"08:14:55","56.1","40.3","55.4","30.08","104","2.4","6","0.00","0.00"
"08:19:57","56.2","40.9","56.2","30.08","114","2.9","7","0.00","0.00"
"08:24:59","56.7","41.3","56.3","30.08","103","2.7","7","0.00","0.00"
"08:29:57","57.2","41.9","56.5","30.09","97","2.4","5","0.00","0.00"
"08:34:59","57.7","42","55.8","30.09","96","2.3","5","0.00","0.00"
"08:39:59","58","42.3","55.8","30.09","103","2.8","6","0.00","0.00"
"08:44:57","58.3","42.7","56.1","30.09","100","2.2","6","0.00","0.00"
"08:49:58","58.6","43","56.1","30.08","84","3.3","5","0.00","0.00"
"08:54:57","58.9","43.3","56.1","30.08","87","2.2","4.6","0.00","0.00"
"08:59:59","59.3","43.4","55.4","30.08","103","2.9","6","0.00","0.00"
"09:04:56","59.7","43.7","55.4","30.08","106","3.3","6","0.00","0.00"
"09:09:56","59.9","44","55.7","30.08","87","2.4","6","0.00","0.00"
"09:14:59","60.3","43.9","54.7","30.08","114","3.2","6","0.00","0.00"
"09:19:57","60.6","43.9","54","30.08","118","3.1","6","0.00","0.00"
"09:24:58","60.9","43.7","53.2","30.08","132","3.3","7","0.00","0.00"
"09:29:56","61.1","43.7","52.9","30.08","99","3.8","6","0.00","0.00"
"09:34:58","61.4","44.3","53.4","30.08","102","4.1","6","0.00","0.00"
"09:39:56","61.7","45.2","54.7","30.08","105","2","4.6","0.00","0.00"
"09:44:57","62.3","44.6","52.3","30.08","134","2.4","5","0.00","0.00"
"09:49:58","62.7","44.6","51.6","30.08","126","3.9","7","0.00","0.00"
"09:54:56","62.8","44.9","52.1","30.08","132","4.1","9","0.00","0.00"
"09:59:57","62.9","45","52","30.08","106","5.6","10","0.00","0.00"
"10:04:53","62.9","44.7","51.5","30.08","114","5","10.4","0.00","0.00"
"10:09:57","63.2","44.9","51.5","30.08","128","4.3","10.4","0.00","0.00"
"10:14:56","63.5","45","50.9","30.09","135","3.8","8.1","0.00","0.00"
"10:19:58","64.1","45.3","50.5","30.09","127","4.5","13","0.00","0.00"
"10:24:59","64.5","45.7","50.5","30.09","139","4.4","12.7","0.00","0.00"
"10:29:57","64.7","45.3","49.4","30.09","129","4.1","10.4","0.00","0.00"
"10:34:59","64.9","45.2","49","30.08","158","4.6","11","0.00","0.00"
"10:39:59","65.1","45.3","48.9","30.08","117","4.2","19","0.00","0.00"
"10:44:56","64.9","45.2","48.9","30.08","136","4.2","11.5","0.00","0.00"
"10:49:58","64.6","45.3","49.5","30.08","137","3.6","9.2","0.00","0.00"
"10:54:59","64.6","45.7","50.4","30.08","154","3.3","6.9","0.00","0.00"
"10:59:57","64.6","45","49","30.08","149","3.8","6","0.00","0.00"
"11:04:58","64.7","46.1","50.9","30.08","111","2.9","6","0.00","0.00"
"11:09:58","65","47.1","52.3","30.08","128","2.1","5","0.00","0.00"
"11:14:56","65.4","46.9","51.2","30.08","113","4.2","10.4","0.00","0.00"
"11:19:59","65.7","46.9","50.6","30.08","112","4.1","8.1","0.00","0.00"
"11:24:56","66.3","47.1","50","30.08","129","4.3","9.2","0.00","0.00"
"11:29:59","66.6","47.9","51","30.08","120","4.3","9.2","0.00","0.00"
"11:34:56","67.1","47.6","49.7","30.08","97","5.5","12","0.00","0.00"
"11:39:59","67.2","47.4","49.1","30.08","101","5.4","13","0.00","0.00"
"11:44:57","67.4","47.9","49.6","30.08","106","5.9","15","0.00","0.00"
"11:49:56","67","47","48.6","30.08","99","3.3","9","0.00","0.00"
"11:54:58","66.7","46.9","48.9","30.08","114","5.6","12","0.00","0.00"
"11:59:55","67","47.8","50.2","30.08","115","3.7","10","0.00","0.00"
"12:01:29","67.3","46.9","48","30.07","124","4.5","10.4","0.00","0.00"
"12:09:59","67.4","47.3","48.5","30.07","150","4.1","11.5","0.00","0.00"
"12:14:59","67.2","47.5","49.2","30.07","119","4.2","9","0.00","0.00"
"12:19:58","67.6","47.9","49.3","30.07","116","4.5","10","0.00","0.00"
"12:24:56","68.3","48.7","49.6","30.07","133","4.7","11.5","0.00","0.00"
"12:29:59","68.7","48.3","48.3","30.07","106","4.8","11.5","0.00","0.00"
"12:34:57","68.2","47.5","47.5","30.07","116","3.9","9.2","0.00","0.00"
"12:39:57","67.8","47.5","48.2","30.07","144","3.9","11","0.00","0.00"
"12:44:59","68","47.2","47.5","30.07","137","4.3","10.4","0.00","0.00"
"12:49:57","68.3","47.5","47.5","30.06","149","5.6","13","0.00","0.00"
"12:54:59","68.6","47.6","47.2","30.06","163","3.2","8.1","0.00","0.00"
"12:59:58","69.2","48.1","47","30.06","148","4.3","10","0.00","0.00"
"13:04:58","69.6","48","46.1","30.05","122","5","12","0.00","0.00"
"13:09:57","69.7","48.7","47.1","30.05","110","5.6","12","0.00","0.00"
"13:14:58","69.8","48.5","46.7","30.05","130","5.2","12","0.00","0.00"
"13:19:59","70.1","48.5","46.3","30.04","124","5.2","15","0.00","0.00"
"13:24:58","70.4","48.9","46.4","30.04","121","4.2","12","0.00","0.00"
"13:29:56","70.4","48.7","46.2","30.04","105","4.3","9","0.00","0.00"
"13:34:59","70.4","48.9","46.5","30.04","138","3.8","11.5","0.00","0.00"
"13:39:58","70.3","49","46.8","30.04","117","6.4","14","0.00","0.00"
"13:44:56","70.6","50.3","48.7","30.04","99","5.5","13","0.00","0.00"
"13:49:54","70.7","49","46.2","30.03","105","5.7","12.7","0.00","0.00"
"13:54:56","70.8","49.7","47.3","30.03","126","3.9","12","0.00","0.00"
"13:59:59","71.5","49.9","46.5","30.03","116","4.9","14","0.00","0.00"
"14:04:59","71.9","49.5","45.3","30.02","155","5.5","12","0.00","0.00"
"14:09:58","71.4","48.2","43.8","30.02","154","5.1","11.5","0.00","0.00"
"14:14:58","71","48.6","45.1","30.02","119","6.4","14","0.00","0.00"
"14:19:56","71.3","49.3","45.7","30.02","125","5.1","11.5","0.00","0.00"
"14:24:58","71.5","48.8","44.5","30.02","115","6.1","12","0.00","0.00"
"14:29:56","70.8","47.9","44.2","30.02","140","4.9","15","0.00","0.00"
"14:34:57","70.3","47.3","44","30.02","167","6.8","15","0.00","0.00"
"14:39:57","70.1","48","45.4","30.02","144","4.6","9.2","0.00","0.00"
"14:44:59","70.5","48.1","45.1","30.02","121","4.7","10","0.00","0.00"
"14:49:57","70.2","47.8","45","30.02","144","6","13","0.00","0.00"
"14:54:58","69.6","47.1","44.7","30.02","137","6.3","14","0.00","0.00"
"14:59:56","69.8","48.6","46.9","30.02","119","4.9","12.7","0.00","0.00"
"15:04:56","70.9","48.6","45.2","30.01","140","5.3","14","0.00","0.00"
"15:09:56","71.5","48.5","44","30.01","154","5.3","12.7","0.00","0.00"
"15:14:56","71.7","49.1","44.8","30.01","177","4.3","10.4","0.00","0.00"
"15:19:58","71.9","49","44.4","30.01","162","5.2","13","0.00","0.00"
"15:24:59","72","47.3","41.5","30.01","164","7.5","18.4","0.00","0.00"
"15:29:58","71.5","47.3","42.2","30.01","125","7.3","17","0.00","0.00"
"15:34:56","70.8","46.7","42.1","30.01","104","9.1","17.3","0.00","0.00"
"15:39:57","70.7","47.6","43.8","30.01","112","6.5","17","0.00","0.00"
"15:44:59","70.8","47.3","43.1","30.01","107","8.4","17.3","0.00","0.00"
"15:49:57","70.6","47","43","30.01","115","8.9","16.1","0.00","0.00"
"15:54:59","70.2","46.8","43.2","30.01","134","6.8","13.8","0.00","0.00"
"15:59:57","70","46.6","43.3","30.01","108","8.1","14","0.00","0.00"
"16:04:58","69.4","46.8","44.5","30.00","146","4.9","12","0.00","0.00"
"16:09:58","69.3","46.4","44","30.00","143","5.1","12","0.00","0.00"
"16:14:59","69.9","47.7","45.3","30.01","168","5.3","13","0.00","0.00"
"16:16:28","70.7","46.9","42.7","30.01","138","4.7","12","0.00","0.00"
"16:24:59","70.3","46.3","42.3","30.01","140","5.8","14","0.00","0.00"
"16:29:57","70.2","46.7","43.2","30.01","137","5.7","14","0.00","0.00"
"16:34:58","70.1","46.9","43.7","30.00","131","5.7","12","0.00","0.00"
"16:39:58","70.1","47.3","44.1","30.00","131","4.7","10.4","0.00","0.00"
"16:44:56","70.2","46.7","43.2","30.00","150","5.1","10.4","0.00","0.00"
"16:49:59","70.1","47.4","44.3","29.99","161","4.8","13","0.00","0.00"
"16:54:57","70.3","47.7","44.6","29.99","158","4.7","12","0.00","0.00"
"16:59:59","70.4","47","43.3","29.99","137","5.6","16","0.00","0.00"
"17:04:59","70","46.5","43","29.99","143","6.5","15","0.00","0.00"
"17:09:59","69.7","46.9","44.2","29.99","109","6.2","15","0.00","0.00"
"17:14:58","69.4","46.6","44.2","30.00","112","7.5","15","0.00","0.00"
"17:19:57","69.3","47","45","30.00","120","7","14","0.00","0.00"
"17:24:59","69.5","48.1","46.5","30.00","126","4.5","12","0.00","0.00"
"17:29:57","69.6","47.5","45.4","30.00","114","6.3","16","0.00","0.00"
"17:34:55","69.3","46.9","44.7","29.99","112","6.9","13.8","0.00","0.00"
"17:39:56","69.1","47.4","46","29.99","135","7.1","15","0.00","0.00"
"17:44:58","69","48","47","30.00","132","5","15","0.00","0.00"
"17:49:56","69.2","48.2","47.1","30.00","145","4.3","10.4","0.00","0.00"
"17:54:58","69.3","47.4","45.6","30.00","155","5.4","12","0.00","0.00"
"17:59:56","69","47.6","46.4","30.00","105","7.3","14","0.00","0.00"
"18:04:56","68.4","47.3","46.8","30.00","132","5.6","12.7","0.00","0.00"
"18:09:56","68.1","47.2","47.1","30.00","137","4.4","10.4","0.00","0.00"
"18:14:56","67.9","47.4","48","30.00","138","4.3","12","0.00","0.00"
"18:19:58","67.7","47.6","48.7","30.00","138","3.3","13","0.00","0.00"
"18:24:59","67.5","47.3","48.3","30.00","140","4.9","17","0.00","0.00"
"18:29:56","67.3","47.4","48.8","30.01","126","5.2","17.3","0.00","0.00"
"18:34:58","67","47.3","49.2","30.01","151","5.3","15","0.00","0.00"
"18:39:57","66.9","47.2","49.3","30.01","135","5.4","12","0.00","0.00"
"18:44:58","66.7","47.5","50","30.01","124","4.9","10.4","0.00","0.00"
"18:49:56","66.5","47.5","50.5","30.01","122","4.9","11.5","0.00","0.00"
"18:54:57","66.2","47.4","50.8","30.01","126","4.1","9.2","0.00","0.00"
"18:59:59","65.7","47.2","51.2","30.01","125","5.9","12","0.00","0.00"
"19:04:59","65.5","47.4","52","30.01","110","4.6","13","0.00","0.00"
"19:09:59","65.2","47.1","52","30.01","124","5","11.5","0.00","0.00"
"19:14:59","64.9","46.9","52.1","30.01","107","5","14","0.00","0.00"
"19:19:58","64.7","47","52.6","30.01","146","4.1","8.1","0.00","0.00"
"19:24:56","64.4","47.1","53.4","30.01","132","3.1","5.8","0.00","0.00"
"19:25:55","64.2","47.2","54","30.01","98","2.5","3.5","0.00","0.00"
"19:34:57","63.9","46.3","52.8","30.01","111","5.4","11.5","0.00","0.00"
"19:39:57","63.7","46.1","52.8","30.01","118","4","9","0.00","0.00"
"19:44:56","63.5","46","52.8","30.01","116","6.9","15","0.00","0.00"
"19:49:56","63.4","45.5","52","30.01","113","7","15","0.00","0.00"
"19:54:56","63.2","45.5","52.3","30.01","121","5.3","13","0.00","0.00"
"19:59:59","63","45.4","52.5","30.01","113","4.6","11","0.00","0.00"
"20:04:56","62.8","45.4","53","30.01","131","5.1","10.4","0.00","0.00"
"20:09:56","62.7","45.3","53","30.01","134","3.7","9.2","0.00","0.00"
"20:14:57","62.5","45.4","53.6","30.01","122","3.6","12","0.00","0.00"
"20:19:59","62.3","45.7","54.5","30.01","140","3.5","9.2","0.00","0.00"
"20:24:59","62.1","45.7","55","30.01","120","4.2","11.5","0.00","0.00"
"20:29:58","62","45.7","55.2","30.02","128","3.6","9","0.00","0.00"
"20:34:57","62","46.1","56.1","30.02","128","3","6","0.00","0.00"
"20:39:58","61.7","46.3","56.9","30.02","149","3.1","7","0.00","0.00"
"20:44:58","61.6","46.2","57","30.03","157","2.3","4","0.00","0.00"
"20:49:57","61.4","46","57","30.03","144","2.7","7","0.00","0.00"
"20:54:57","61.3","46.3","57.8","30.03","156","2.4","4","0.00","0.00"
"20:59:56","61.2","46.3","58","30.04","138","1.8","4","0.00","0.00"
"21:04:57","60.9","46.5","58.9","30.04","129","1.8","6","0.00","0.00"
"21:09:58","60.6","46.2","59","30.04","141","2.3","4.6","0.00","0.00"
"21:14:59","60.4","46","59","30.05","150","2.8","6","0.00","0.00"
"21:19:58","60.3","46.1","59.4","30.05","171","2.3","7","0.00","0.00"
"21:24:56","60.2","45.7","58.7","30.05","120","4.6","9","0.00","0.00"
"21:29:59","60.2","45.4","58","30.05","140","4","9.2","0.00","0.00"
"21:34:59","60.1","45.3","58","30.05","149","3","11","0.00","0.00"
"21:39:56","60.1","45.3","58","30.05","143","3.1","7","0.00","0.00"
"21:44:59","59.9","45.2","58.2","30.05","155","2.1","5","0.00","0.00"
"21:49:58","59.8","45","58","30.05","128","4.1","11.5","0.00","0.00"
"21:54:57","59.8","45","58","30.05","126","3.2","10.4","0.00","0.00"
"21:59:57","59.8","45","58","30.05","118","2.7","5.8","0.00","0.00"
"22:04:59","59.7","45.3","59","30.05","105","2.4","4.6","0.00","0.00"
"22:09:59","59.5","45.2","59","30.05","106","3","6","0.00","0.00"
"22:14:59","59.5","44.9","58.5","30.05","121","2.8","5.8","0.00","0.00"
"22:19:59","59.4","44.9","58.6","30.04","109","3.2","7","0.00","0.00"
"22:24:58","59.3","44.8","58.6","30.04","103","4.2","6.9","0.00","0.00"
"22:29:56","59.3","44.8","58.6","30.04","110","3.5","9","0.00","0.00"
"22:34:59","59.3","44.7","58.4","30.04","119","3.9","7","0.00","0.00"
"22:39:56","59.3","44.6","58.2","30.04","113","3.2","6.9","0.00","0.00"
"22:44:58","59.2","44.6","58.4","30.04","110","3.4","6","0.00","0.00"
"22:49:57","59.1","44.8","58.8","30.04","118","3.3","6","0.00","0.00"
"22:54:57","59","44.6","58.8","30.04","113","3.8","6","0.00","0.00"
"22:59:55","58.9","44.5","58.9","30.04","108","4","9.2","0.00","0.00"
"23:04:56","58.7","44.4","59","30.04","120","4","7","0.00","0.00"
"23:09:57","58.6","44.4","59.1","30.04","123","3.6","7","0.00","0.00"
"23:14:58","58.6","44.7","59.9","30.04","121","3.4","9","0.00","0.00"
"23:19:58","58.5","44.7","60","30.04","129","2.7","5","0.00","0.00"
"23:24:57","58.5","45","60.9","30.04","117","2.5","5","0.00","0.00"
"23:29:56","58.4","45.2","61.5","30.05","106","2.7","5","0.00","0.00"
"23:34:59","58.3","45.3","62","30.05","125","2","5","0.00","0.00"
"23:39:56","58.3","45.6","62.6","30.05","137","1.5","5","0.00","0.00"
"23:44:59","58.2","45.7","63","30.05","129","1.7","5","0.00","0.00"
"23:49:58","58.2","45.7","63.1","30.05","139","2.1","6","0.00","0.00"
"23:54:58","58.2","45.9","63.5","30.05","122","3.2","5.8","0.00","0.00"
"23:59:57","58.1","46","64","30.05","124","1.8","3.5","0.00","0.00"
